Temp
24 21 20 22 21 24 23 24 23 24 26 27 26 25 27 28 27 27 26 25 25 25 27 25 25 25 24 24 24 23 23 23 22 21 20 20 20 20 20 19 19 19 19 18
22 21 23 24 23 24 23 23 22 23 26 25 24 25 25 26 27 27 26 25 25 26 25 25 24 25 25 25 24 24 24 23 22 22 22 21 21 20 20 19 19 19 19 19
23 24 25 25 24 24 23 22 23 23 25 25 25 24 25 26 28 28 27 27 27 28 26 25 24 25 25 25 25 25 24 24 23 22 21 21 20 20 20 20 20 20 19 19
22 25 25 25 24 24 21 24 25 25 24 24 25 22 23 26 24 25 28 27 27 28 26 26 26 25 26 27 25 25 25 24 23 22 21 21 21 21 20 19 19 19 19 19
22 24 23 24 25 25 24 25 24 24 23 23 24 21 22 24 25 25 26 27 30 31 26 26 28 28 28 27 26 25 25 24 23 22 22 21 21 21 20 19 19 20 19 18
22 26 25 25 26 25 26 26 22 19 19 20 22 21 22 24 25 26 27 31 30 28 27 27 30 27 26 27 26 25 25 24 24 22 22 22 22 21 20 20 20 19 19 18
23 24 26 26 26 25 26 21 20 20 19 21 21 22 22 24 26 25 27 30 31 28 26 26 26 25 25 27 26 25 25 24 24 22 22 21 20 20 19 19 19 19 19 18
21 21 24 26 24 24 22 20 18 21 20 23 20 21 24 26 26 28 29 31 30 27 27 27 27 27 26 27 26 25 25 24 23 22 21 20 20 19 18 18 18 19 18 18
20 21 26 26 26 25 25 22 22 21 19 19 20 22 24 25 24 24 24 27 28 27 27 27 27 26 26 26 25 25 25 24 23 22 21 21 20 20 19 20 18 18 18 18
23 21 24 25 26 26 25 24 24 19 22 22 20 22 21 23 23 22 23 24 26 27 27 27 26 25 25 25 24 24 24 24 22 21 20 21 21 21 21 19 19 18 18 18
22 19 22 24 23 23 24 23 22 20 18 20 20 20 20 23 21 20 19 20 22 23 23 23 22 23 24 24 23 24 23 23 21 21 21 20 20 20 20 18 18 18 18 18
21 17 19 23 24 25 24 23 23 22 21 16 18 20 21 21 21 21 21 20 21 20 20 21 21 20 20 22 22 23 23 22 21 20 20 20 20 20 19 18 18 17 18 18
21 17 17 19 22 24 25 25 22 19 17 18 20 21 20 20 21 22 21 22 22 23 23 22 21 21 22 21 22 22 22 21 21 20 20 20 19 19 19 18 18 18 18 17
20 16 18 18 20 21 20 23 23 20 19 18 19 22 22 20 20 19 22 26 27 26 26 25 23 24 25 22 23 23 21 20 20 20 20 20 19 19 19 18 18 18 18 18
18 19 16 18 19 20 22 22 23 21 20 21 22 21 20 17 15 16 20 20 24 26 25 23 24 25 24 23 22 21 20 20 20 20 21 20 20 19 19 18 18 18 17 17
15 18 17 17 21 21 22 20 21 19 18 20 19 18 15 16 16 15 15 16 18 19 22 24 23 23 23 23 22 21 21 21 21 21 21 21 20 20 18 18 18 17 17 17
18 18 19 19 19 19 19 18 18 16 17 16 18 16 16 15 15 14 14 14 15 17 20 23 23 23 23 23 22 22 21 21 20 20 19 19 19 19 18 18 17 17 17 17
15 15 13 17 17 18 18 18 18 17 17 16 16 15 16 14 13 12 13 15 15 16 16 18 23 23 22 22 22 21 21 20 19 19 19 19 19 18 18 18 17 17 18 18
15 14 15 18 16 17 19 18 17 16 18 16 15 15 14 15 15 14 14 16 16 13 15 15 18 20 21 21 22 21 20 20 20 20 20 20 19 18 18 18 18 18 18 19
13 13 17 15 18 17 17 16 15 16 16 15 15 14 14 15 14 12 16 17 16 14 17 14 17 18 20 22 22 21 20 20 19 19 19 18 18 17 17 17 17 17 18 19
11 11 13 14 16 15 15 14 14 17 16 12 14 14 15 14 15 14 14 15 16 15 15 16 18 19 17 18 18 20 20 18 18 18 17 17 16 16 16 16 16 16 16 16
11 12 12 12 15 15 13 14 16 13 13 13 14 14 13 13 14 15 14 15 17 17 17 17 18 16 16 16 17 17 17 17 16 16 15 15 15 15 15 15 16 14 14 15
13 11 11 12 12 10 12 13 12 11 12 13 14 15 13 14 15 14 14 14 15 14 14 14 14 14 14 15 15 14 14 15 15 15 15 14 14 15 15 15 16 15 15 15
13 10 11 11 11 12 12 11 12 14 15 14 14 14 14 15 15 14 14 13 14 15 15 14 14 15 14 14 13 13 14 14 14 14 14 13 13 13 14 15 15 15 16 16
13 11 11 10 11 12 12 11 13 15 15 16 15 14 14 15 16 14 14 13 13 12 13 14 14 14 14 13 13 13 13 13 13 13 13 12 13 13 14 15 14 15 16 15
12 11 10 10 12 11 13 13 12 13 14 14 14 13 14 16 15 15 14 13 13 12 12 12 12 12 12 12 12 12 12 12 12 12 12 12 13 13 12 13 13 14 15 14
Height
1466 1473 1480 1476 1473 1473 1478 1481 1484 1471 1462 1469 1468 1467 1452 1449 1453 1450 1453 1453 1454 1453 1455 1467 1470 1474 1480 1484 1487 1490 1494 1497 1500 1502 1504 1507 1509 1512 1514 1515 1517 1518 1519 1521
1467 1471 1464 1463 1468 1472 1475 1481 1481 1470 1459 1471 1467 1465 1451 1448 1443 1445 1445 1446 1448 1448 1455 1460 1465 1469 1473 1477 1482 1486 1489 1493 1496 1500 1502 1505 1507 1510 1513 1514 1514 1515 1516 1517
1463 1459 1457 1461 1465 1472 1475 1480 1477 1478 1464 1463 1465 1469 1456 1441 1440 1442 1445 1443 1443 1443 1446 1453 1456 1458 1466 1472 1475 1480 1484 1488 1492 1497 1501 1504 1506 1508 1509 1509 1511 1512 1514 1515
1458 1453 1456 1460 1464 1467 1483 1463 1464 1467 1477 1487 1461 1496 1462 1444 1441 1438 1437 1436 1434 1437 1442 1446 1450 1454 1458 1463 1471 1477 1481 1485 1490 1494 1498 1502 1504 1505 1506 1507 1507 1508 1510 1512
1457 1451 1455 1460 1455 1458 1463 1454 1462 1463 1471 1474 1470 1490 1464 1446 1443 1433 1425 1426 1425 1424 1429 1433 1439 1444 1449 1459 1465 1472 1479 1483 1486 1491 1496 1498 1499 1501 1503 1503 1504 1504 1506 1508
1449 1443 1444 1445 1444 1449 1446 1453 1463 1472 1480 1495 1469 1477 1466 1454 1440 1428 1421 1418 1417 1417 1421 1425 1432 1438 1445 1453 1460 1468 1474 1480 1484 1490 1494 1497 1499 1501 1499 1500 1500 1502 1502 1504
1448 1444 1436 1438 1447 1447 1452 1471 1496 1503 1504 1496 1465 1469 1452 1432 1426 1423 1416 1413 1412 1412 1418 1426 1430 1435 1441 1448 1455 1464 1471 1476 1483 1489 1493 1495 1497 1496 1497 1500 1498 1499 1501 1501
1465 1468 1440 1434 1442 1452 1457 1469 1501 1504 1507 1484 1470 1474 1441 1418 1412 1411 1408 1406 1409 1412 1417 1422 1427 1430 1435 1443 1451 1461 1467 1474 1480 1486 1491 1492 1493 1492 1488 1493 1494 1496 1498 1499
1464 1459 1432 1432 1431 1438 1449 1466 1452 1475 1485 1493 1476 1452 1423 1413 1409 1406 1399 1401 1405 1409 1413 1418 1423 1428 1434 1441 1448 1456 1465 1473 1480 1485 1486 1487 1490 1490 1489 1493 1493 1493 1495 1496
1443 1457 1436 1430 1427 1429 1438 1439 1461 1475 1484 1491 1480 1465 1456 1425 1416 1409 1404 1398 1402 1408 1412 1416 1422 1428 1435 1441 1448 1457 1466 1471 1478 1481 1484 1486 1489 1491 1490 1490 1490 1493 1494 1493
1439 1449 1446 1428 1436 1440 1440 1445 1450 1458 1477 1487 1490 1470 1426 1420 1415 1412 1414 1407 1408 1412 1417 1423 1429 1431 1435 1441 1449 1458 1464 1470 1475 1478 1482 1485 1488 1490 1491 1491 1492 1493 1493 1492
1442 1455 1460 1439 1419 1419 1424 1433 1437 1464 1471 1480 1477 1461 1417 1415 1412 1409 1416 1417 1414 1417 1421 1426 1432 1436 1441 1446 1452 1457 1462 1467 1473 1479 1482 1484 1486 1487 1488 1491 1492 1492 1492 1492
1442 1458 1471 1453 1431 1424 1426 1419 1428 1443 1461 1465 1472 1455 1421 1414 1409 1413 1412 1419 1419 1420 1424 1430 1436 1443 1450 1454 1454 1457 1460 1467 1472 1476 1478 1481 1483 1484 1485 1486 1489 1490 1489 1490
1441 1461 1465 1476 1457 1439 1443 1424 1420 1431 1457 1458 1457 1438 1424 1421 1414 1412 1408 1405 1413 1419 1422 1420 1428 1432 1440 1461 1461 1455 1458 1465 1470 1472 1474 1477 1479 1481 1483 1484 1485 1487 1487 1487
1448 1457 1461 1451 1443 1440 1428 1423 1417 1427 1437 1444 1435 1436 1433 1432 1436 1433 1425 1422 1407 1408 1415 1421 1425 1430 1435 1449 1457 1456 1460 1462 1467 1470 1471 1474 1476 1478 1479 1480 1481 1482 1483 1483
1451 1457 1455 1454 1434 1435 1432 1423 1421 1423 1430 1430 1438 1439 1434 1433 1431 1431 1429 1429 1428 1424 1419 1421 1429 1430 1439 1442 1450 1455 1459 1461 1466 1469 1468 1471 1475 1475 1475 1477 1477 1477 1478 1477
1453 1455 1455 1461 1443 1436 1446 1438 1435 1436 1435 1433 1444 1446 1441 1436 1436 1435 1435 1434 1439 1442 1436 1425 1432 1439 1439 1438 1447 1456 1455 1460 1464 1464 1466 1467 1470 1471 1472 1473 1473 1474 1475 1476
1452 1456 1465 1467 1456 1464 1446 1439 1437 1439 1438 1432 1441 1444 1441 1433 1438 1442 1440 1435 1441 1451 1448 1440 1428 1431 1442 1447 1446 1454 1456 1459 1459 1459 1461 1464 1466 1468 1469 1470 1469 1470 1470 1469
1443 1451 1459 1460 1470 1460 1444 1443 1446 1447 1439 1434 1438 1443 1439 1434 1437 1436 1435 1430 1429 1458 1458 1451 1435 1433 1442 1445 1443 1448 1454 1457 1456 1457 1459 1462 1464 1465 1466 1465 1466 1466 1466 1464
1444 1446 1450 1462 1459 1468 1449 1445 1445 1447 1453 1443 1444 1451 1445 1443 1448 1449 1439 1430 1442 1457 1451 1460 1436 1438 1443 1445 1444 1449 1450 1452 1454 1454 1459 1462 1462 1463 1462 1463 1464 1464 1463 1462
1463 1461 1464 1461 1459 1457 1451 1449 1448 1454 1458 1446 1445 1444 1441 1443 1444 1447 1447 1446 1447 1461 1465 1441 1445 1440 1444 1448 1448 1443 1445 1450 1452 1452 1458 1461 1459 1459 1459 1458 1459 1458 1457 1455
1470 1468 1467 1466 1460 1464 1451 1446 1450 1454 1446 1444 1442 1440 1441 1440 1444 1446 1448 1445 1449 1453 1449 1449 1453 1456 1454 1448 1449 1451 1452 1452 1451 1452 1456 1456 1456 1455 1456 1455 1453 1451 1449 1447
1466 1465 1467 1464 1461 1456 1453 1453 1452 1451 1446 1440 1439 1440 1441 1442 1442 1449 1449 1457 1455 1455 1449 1451 1456 1456 1454 1452 1454 1456 1457 1455 1451 1450 1450 1449 1450 1451 1451 1449 1446 1442 1441 1436
1458 1459 1461 1460 1457 1454 1453 1452 1450 1448 1443 1442 1441 1442 1445 1448 1447 1445 1450 1455 1453 1445 1448 1454 1454 1453 1455 1455 1458 1460 1455 1454 1447 1446 1444 1445 1445 1447 1447 1444 1441 1437 1434 1429
1457 1459 1456 1457 1455 1454 1454 1452 1449 1447 1443 1438 1440 1444 1448 1449 1447 1447 1448 1449 1451 1453 1454 1450 1451 1453 1454 1456 1457 1457 1456 1452 1447 1442 1443 1441 1441 1439 1438 1436 1433 1431 1429 1427
1453 1453 1457 1455 1446 1449 1452 1451 1450 1449 1447 1443 1447 1445 1449 1450 1448 1447 1450 1451 1450 1448 1451 1453 1454 1455 1456 1458 1457 1461 1455 1455 1451 1444 1439 1440 1437 1436 1436 1432 1429 1426 1424 1422
Wind_Speed
9 5 7 11 10 4 5 4 7 9 10 2 12 12 20 14 20 23 24 28 36 45 46 41 42 38 38 35 36 34 30 26 27 25 24 24 24 22 17 15 19 17 19 18
5 9 8 8 5 7 5 5 9 8 14 6 10 14 11 6 23 24 29 31 38 46 32 38 44 42 43 38 39 37 34 30 28 27 23 23 19 19 16 15 13 16 17 18
16 10 8 5 6 6 6 6 11 10 10 6 7 7 7 6 11 21 29 38 42 47 40 39 44 47 44 42 42 41 36 32 31 28 26 24 21 20 18 17 18 17 18 17
13 11 9 5 8 7 8 9 12 11 2 9 5 7 6 6 8 7 21 33 41 46 36 41 44 47 48 43 43 43 36 34 32 29 27 23 20 18 15 15 16 16 15 15
8 9 9 13 20 6 13 4 8 9 6 1 3 2 7 4 9 10 10 20 36 39 44 47 48 49 46 43 46 45 38 36 33 30 25 21 17 16 15 15 14 15 15 15
9 16 8 12 10 9 8 3 6 5 2 3 6 7 5 5 8 6 7 21 21 31 40 48 46 48 44 45 47 45 41 37 33 29 21 20 18 15 16 14 12 12 14 15
5 6 4 7 3 2 4 6 5 5 3 8 7 3 8 4 7 12 15 27 24 26 37 39 41 41 41 44 48 45 42 38 32 26 18 16 17 15 9 15 13 13 14 16
4 8 6 3 8 9 6 9 6 5 6 10 1 6 7 8 15 21 28 31 24 25 31 37 41 41 41 43 46 45 44 38 31 24 16 19 18 18 14 15 13 15 14 17
4 8 5 3 6 9 6 5 7 4 2 2 4 7 10 7 12 8 17 21 25 27 32 37 40 39 37 40 44 45 42 35 28 20 21 18 17 17 12 14 13 10 14 13
6 2 3 5 3 6 7 6 1 1 2 4 5 5 6 11 10 10 4 14 20 26 30 33 34 33 33 35 38 38 35 33 27 21 11 13 10 10 17 13 9 11 10 10
2 5 8 3 6 8 0 3 2 6 4 5 4 7 7 6 6 6 7 16 15 17 19 21 24 28 30 31 32 33 34 29 23 14 14 16 10 10 12 10 10 9 8 8
3 4 3 8 10 8 7 9 6 5 6 3 3 7 3 5 3 10 16 16 19 15 14 16 18 20 21 23 28 32 28 26 20 15 16 14 13 8 8 10 9 7 6 7
4 3 4 10 8 7 3 5 6 6 3 6 5 8 4 5 7 12 25 22 20 18 16 13 12 9 8 17 26 27 24 20 19 19 14 14 12 8 8 7 6 4 4 5
6 3 4 4 9 6 7 6 8 8 4 3 6 8 2 5 6 5 10 36 27 21 20 24 26 27 12 11 21 19 18 19 20 17 16 15 11 8 9 7 6 4 4 5
3 2 4 8 14 9 10 13 9 7 6 5 4 5 5 4 8 13 15 14 24 28 32 33 28 24 30 31 20 15 18 18 15 15 18 14 9 9 10 10 9 6 5 6
3 3 2 6 11 3 9 17 8 8 3 3 6 4 6 13 21 20 25 31 28 9 26 26 31 29 28 23 18 16 15 14 14 14 17 19 15 13 12 12 12 10 8 8
3 3 8 13 9 6 4 10 7 3 6 5 2 2 4 13 14 19 27 35 36 24 6 18 20 20 18 17 13 11 13 13 16 14 15 17 19 18 16 15 14 13 12 9
6 6 5 6 7 1 3 2 8 6 6 12 7 1 4 16 15 20 29 37 42 38 20 2 16 18 15 14 14 12 8 9 11 10 12 14 18 20 20 20 20 19 17 17
5 5 3 3 4 6 4 2 4 3 2 1 7 5 4 13 7 13 13 23 33 34 25 21 10 11 8 7 11 10 11 11 8 6 8 12 17 20 22 23 24 23 22 21
5 4 3 3 4 6 4 6 13 6 4 3 3 2 6 4 3 4 21 26 17 6 4 19 10 13 9 4 6 14 12 9 10 10 13 14 16 19 21 23 27 28 29 25
5 3 3 2 2 4 5 11 9 2 4 13 8 7 8 3 5 13 18 24 24 18 15 7 8 5 11 9 5 3 2 6 9 11 15 16 15 16 17 15 18 25 35 35
2 1 2 0 2 4 13 4 1 3 7 5 5 7 9 8 16 17 19 17 9 9 16 11 6 8 8 10 8 5 1 2 5 8 11 14 17 18 22 25 26 24 24 28
2 3 3 5 3 2 5 1 7 6 3 7 9 8 3 12 15 13 18 15 12 14 15 12 9 8 8 6 5 3 3 6 8 10 14 16 16 18 22 25 27 31 29 33
2 4 2 4 3 2 2 3 8 4 10 9 8 11 5 12 14 17 15 14 13 16 12 6 6 7 9 10 8 7 8 8 9 11 14 16 18 16 20 23 27 28 29 30
2 4 3 1 2 4 5 7 6 3 4 18 21 14 6 2 10 15 14 13 15 13 10 10 10 10 10 10 10 11 11 12 14 16 15 16 15 14 19 23 27 25 26 22
6 5 3 4 9 3 5 8 2 4 7 12 18 16 1 3 6 6 8 11 12 14 12 10 11 10 10 8 9 8 11 12 14 17 21 20 20 22 20 23 19 19 21 18
Wind_Direction
199 176 198 214 197 230 207 233 237 268 275 325 282 281 284 225 208 207 213 200 210 217 221 214 212 209 210 217 220 220 219 218 215 217 222 230 233 233 236 242 249 252 251 249
235 223 212 225 188 214 236 248 267 294 267 164 277 279 279 211 215 208 207 206 215 224 214 215 214 211 213 215 219 222 222 221 218 220 228 231 236 234 239 241 250 248 250 249
221 225 215 177 246 228 226 217 260 245 311 214 267 286 277 277 216 217 223 222 222 223 217 214 214 214 212 215 218 217 222 222 220 220 222 227 231 236 239 243 251 254 253 260
229 231 213 194 240 181 255 209 248 265 53 274 128 276 295 281 303 196 225 218 223 231 218 215 218 216 211 218 218 217 220 222 221 222 222 231 245 252 266 263 261 259 247 247
238 199 197 216 230 163 246 197 213 251 251 117 215 149 259 333 304 289 288 220 223 232 212 213 216 221 214 216 218 217 218 223 223 223 225 235 245 252 262 264 254 244 242 241
251 246 200 216 219 192 241 321 43 51 81 306 244 181 239 209 225 278 275 277 260 224 208 214 218 216 212 214 216 215 217 222 224 222 229 241 252 266 260 248 242 252 251 252
278 217 242 188 209 106 132 57 316 329 347 240 248 198 236 220 221 227 255 273 259 225 201 202 204 209 209 212 215 212 215 220 222 220 230 245 255 256 257 272 266 266 275 268
198 296 207 191 178 196 186 163 169 242 268 281 32 240 260 244 269 270 267 255 242 205 197 204 208 211 211 212 214 209 212 217 219 218 226 234 240 248 244 250 279 272 275 281
154 271 299 165 212 156 216 161 199 150 45 89 260 288 314 306 290 309 254 211 207 196 198 203 207 211 209 210 212 210 209 212 215 218 226 245 241 275 254 213 282 272 270 266
226 270 243 291 343 210 172 177 155 98 275 251 272 276 247 298 306 327 286 182 192 195 194 200 202 202 202 209 210 207 205 209 210 221 239 216 216 225 182 233 260 261 262 263
340 98 295 233 170 246 267 143 51 103 145 197 236 270 218 256 289 75 14 79 116 140 161 178 188 197 203 205 204 196 199 205 209 224 202 202 210 210 232 252 253 260 262 260
312 124 266 264 268 223 188 212 165 184 246 200 193 263 344 273 92 110 96 75 93 110 133 158 177 188 193 194 188 191 197 208 215 214 195 200 210 227 229 235 250 264 260 247
303 13 354 343 2 10 276 211 159 115 58 195 150 261 347 1 114 153 124 118 114 116 130 144 150 148 170 195 188 188 200 205 204 193 192 203 211 220 223 220 247 265 267 254
54 66 135 254 259 278 278 252 183 146 123 162 226 280 54 270 185 220 145 142 146 150 157 154 144 139 153 262 226 205 199 196 193 191 195 195 214 223 227 226 228 270 252 243
91 275 213 257 260 267 312 312 207 118 176 131 269 244 354 31 355 340 13 353 169 170 176 166 159 162 167 198 205 191 188 187 190 202 199 200 218 225 221 224 222 233 229 214
321 305 31 301 283 0 31 20 8 62 82 100 11 22 332 74 51 28 24 5 344 294 180 168 164 162 177 176 180 181 179 187 201 209 214 225 239 237 231 223 219 223 227 219
294 23 8 302 298 336 349 342 28 67 17 122 27 338 43 72 66 52 41 31 12 342 304 168 173 179 172 169 179 192 196 199 213 217 226 231 235 239 231 225 223 230 234 240
175 156 149 256 335 60 168 343 65 98 139 114 124 207 171 119 93 60 56 49 26 360 344 226 167 159 176 191 173 184 179 207 215 224 229 220 228 234 231 230 227 228 232 237
191 138 174 173 117 296 272 54 8 332 304 118 143 200 226 147 31 26 47 25 28 360 17 3 74 109 128 201 172 190 201 206 207 222 239 244 248 244 243 243 242 240 238 250
53 32 132 166 153 192 234 348 344 306 357 135 306 303 266 279 35 273 69 64 75 230 327 311 78 81 147 232 184 211 214 233 247 253 262 259 253 254 257 259 257 254 251 268
346 355 98 11 110 285 354 313 303 147 223 303 261 267 254 265 286 124 105 106 119 151 152 125 304 19 69 72 60 66 266 235 242 248 249 255 257 260 261 254 256 254 250 264
233 18 321 174 120 247 355 16 345 304 309 283 305 295 290 286 144 110 107 99 114 136 129 103 93 79 70 64 66 71 43 276 266 273 280 281 278 268 265 269 269 269 278 291
307 180 221 178 235 36 13 1 172 350 347 332 323 355 59 124 121 106 98 107 105 112 92 97 101 85 70 56 35 12 344 307 304 300 297 298 297 289 281 269 273 286 294 304
210 175 215 30 4 310 43 186 171 70 41 32 21 14 139 119 126 108 101 88 71 58 75 87 86 72 59 49 37 21 6 344 331 324 325 322 313 292 290 287 284 289 294 300
222 171 213 259 240 265 161 177 176 153 74 72 50 19 245 198 108 94 83 65 66 74 71 59 61 69 72 64 55 45 35 26 23 19 10 4 349 321 287 278 283 286 291 285
188 192 172 236 224 147 175 167 134 103 106 102 108 101 70 93 78 59 67 69 59 47 47 71 82 83 79 65 57 42 40 34 35 34 31 19 5 356 332 323 303 296 284 265